Retour au catalogue

IRIDIUM 33 DEB

ActifPO
NORAD 34690·DEBRIS·🇺🇸 United States

Lancé Sep 14, 1997 depuis Baikonur Cosmodrome

Loading…

Prochains Passages (prochaines 24 heures)

TLE

FraisSource: Space-Track

Époque: Sep 14, 2026, 12:12 UTC

1 34690U 97051KM  26257.50833698  .00002332  00000-0  52064-3 0  9998
2 34690  86.3716 277.0196 0010334 149.0294   3.9225 14.56407148921066

Suivez IRIDIUM 33 DEB en temps réel avec AllMySat

Download on the App Store